This is the latest recevied weather packets stored in our database for station/object WC4PEM-11. If no packets are shown the sender has not sent any weather packets the latest 10 day(s).
| Time | Temp. | Humidity | Pressure | Rain* | Wind** | Luminosity | Snow |
|---|---|---|---|---|---|---|---|
| 1777729092 | 25° C | 85% | 1011.3 hPa | 0 mm | - | - | - |
| 1777728792 | 25° C | 85% | 1011.2 hPa | 0 mm | - | - | - |
| 1777728492 | 25° C | 86% | 1011 hPa | 0 mm | - | - | - |
| 1777728192 | 24.44° C | 87% | 1010.8 hPa | 0 mm | - | - | - |
| 1777727892 | 23.89° C | 87% | 1010.7 hPa | 0 mm | - | - | - |
| 1777727704 | 22.78° C | 89% | 1010.8 hPa | 0 mm | - | - | - |
| 1777727592 | 23.89° C | 88% | 1010.8 hPa | 0 mm | - | - | - |
| 1777727292 | 23.33° C | 89% | 1010.9 hPa | 0 mm | - | - | - |
| 1777726992 | 22.78° C | 89% | 1010.8 hPa | 0 mm | - | - | - |
| 1777726692 | 22.78° C | 90% | 1010.9 hPa | 0 mm | - | - | - |
| 1777726393 | 22.22° C | 92% | 1010.8 hPa | 0 mm | - | - | - |
| 1777726092 | 21.67° C | 93% | 1010.7 hPa | 0 mm | - | - | - |
| 1777725792 | 21.67° C | 94% | 1010.7 hPa | 0 mm | - | - | - |
| 1777725492 | 21.67° C | 95% | 1010.6 hPa | 0 mm | - | - | - |
| 1777725192 | 21.11° C | 97% | 1010.7 hPa | 0 mm | - | - | - |
| 1777724893 | 21.11° C | 97% | 1010.8 hPa | 0 mm | - | - | - |
| 1777724592 | 20.56° C | 97% | 1010.6 hPa | 0 mm | - | - | - |
| 1777724292 | 20.56° C | 98% | 1010.4 hPa | 0 mm | - | - | - |
| 1777724121 | 20° C | 97% | 1010.6 hPa | 0 mm | - | - | - |
| 1777723992 | 20° C | 97% | 1010.6 hPa | 0 mm | - | - | - |
| 1777723693 | 20° C | 98% | 1010.6 hPa | 0 mm | - | - | - |
| 1777723393 | 20° C | 98% | 1010.7 hPa | 0 mm | - | - | - |
| 1777723204 | 20° C | 98% | 1010.7 hPa | 0 mm | - | - | - |
| 1777723169 | 20° C | 98% | 1010.7 hPa | 0 mm | - | - | - |
| 1777723092 | 20° C | 98% | 1010.7 hPa | 0 mm | - | - | - |
* Rain latest hour (hover to see other rain measurements)
** Current wind speed in m/s (hover to see current wind gust speed)